• Join FlightAware (Why Join?)
  • Login
  • US Flag 
Trick or treat! (Boo!!) 
03:08AM EDT


 

Airport Tracker/Info


-or-


 

Live Flight TrackerFlight Track Log ✈ AFL150 ✈ 09-Jul-2013 ✈ UUEE / SVO - MUHA / HAV

Flight Track Log - Related Links

Times and Time Zones

All times are in EDT time to prevent confusion due to time zone crossing. See the AFL150 flight status page for this flight to view local times or setup timezone preferences in your user account.

Time Position Orientation Groundspeed Altitude Reporting Facility
EDT Latitude Longitude Course Direction KTS MPH feet Rate Location/Type
12:48PM 63.9600 -50.2680 250° West 489 563 34,000  Level FlightAware
12:49PM 63.9290 -50.4620 250° West 488 562 34,000  Level FlightAware
12:50PM 63.8940 -50.6810 250° West 488 562 34,000  Level FlightAware
12:50PM 63.8650 -50.8650 250° West 486 559 34,000  Level FlightAware
12:51PM 63.8270 -51.0960 250° West 485 558 34,000  Level FlightAware
12:52PM 63.7920 -51.3100 250° West 484 557 34,000  Level FlightAware
12:52PM 63.7610 -51.4990 250° West 486 559 34,000  Level FlightAware
12:53PM 63.7320 -51.6740 250° West 485 558 34,000  Level FlightAware
12:54PM 63.7000 -51.8630 249° West 484 557 34,000  Level FlightAware
12:54PM 63.6660 -52.0630 249° West 485 558 34,000  Level FlightAware
12:55PM 63.6360 -52.2350 249° West 484 557 34,000  Level FlightAware
12:56PM 63.6040 -52.4230 249° West 483 556 34,000  Level FlightAware
12:56PM 63.5710 -52.6100 248° West 481 554 34,000  Level FlightAware
12:57PM 63.5360 -52.8090 249° West 480 552 34,000  Level FlightAware
12:58PM 63.5020 -52.9940 248° West 478 550 34,000  Level FlightAware
12:59PM 63.4650 -53.1990 248° West 481 554 34,000  Level FlightAware
12:59PM 63.4320 -53.3800 248° West 483 556 34,000  Level FlightAware
01:00PM 63.3880 -53.6200 248° West 485 558 34,000  Level FlightAware
01:01PM 63.3520 -53.8140 248° West 487 560 34,000  Level FlightAware
01:01PM 63.3210 -53.9800 247° West 488 562 34,000  Level FlightAware
01:02PM 63.2770 -54.2090 247° West 487 560 34,000  Level FlightAware
01:03PM 63.2370 -54.4130 247° West 487 560 34,000  Level FlightAware
01:04PM 63.2090 -54.5520 246° West 487 560 34,000  Level FlightAware
01:04PM 63.1710 -54.7390 246° West 487 560 34,000  Level FlightAware
01:05PM 63.1440 -54.8740 246° West 487 560 34,000  Level FlightAware
01:06PM 63.1150 -55.0170 246° West 487 560 34,000  Level FlightAware
01:06PM 63.0770 -55.2070 246° West 487 560 34,000  Level FlightAware
01:07PM 63.0480 -55.3500 246° West 487 560 34,000  Level FlightAware
01:08PM 63.0200 -55.4890 246° West 487 560 34,000  Level FlightAware
01:09PM 62.9720 -55.7270 246° West 487 560 34,000  Level FlightAware
01:09PM 62.9440 -55.8660 246° West 487 560 34,000  Level FlightAware
01:10PM 62.9050 -56.0540 246° West 487 560 34,000  Level FlightAware
01:11PM 62.8780 -56.1890 246° West 487 560 34,000  Level FlightAware
01:11PM 62.8420 -56.3650 246° West 487 560 34,000  Level FlightAware
01:12PM 62.8060 -56.5410 246° West 487 560 34,000  Level FlightAware
01:13PM 62.6667 -56.8667 215° Southwest 240 276 34,000  Level Montreal Center
01:14PM 62.6167 -57.1000 245° Southwest 450 518 34,000  Level Montreal Center
01:15PM 62.5740 -56.9026 216° Southwest  Level Estimated
01:15PM 62.5333 -57.3667 236° Southwest 480 552 34,000  Level Montreal Center
01:16PM 62.4714 -57.0604 215° Southwest  Level Estimated
01:16PM 62.4833 -57.6333 248° West 490 564 34,000  Level Montreal Center
01:17PM 62.3685 -57.2170 215° Southwest  Level Estimated
01:17PM 62.3500 -57.9333 226° Southwest 500 575 34,000  Level Montreal Center
01:18PM 62.2656 -57.3726 215° Southwest  Level Estimated
01:18PM 62.3333 -58.1167 259° West 470 541 34,000  Level Montreal Center
01:19PM 62.2667 -58.3833 242° Southwest 480 552 34,000  Level Montreal Center
01:20PM 62.1833 -58.6167 233° Southwest 490 564 34,000  Level Montreal Center
01:21PM 62.1333 -58.8667 247° West 480 552 34,000  Level Montreal Center
01:22PM 62.0667 -59.0833 237° Southwest 480 552 34,000  Level Montreal Center
01:23PM 61.9833 -59.3500 236° Southwest 490 564 34,000  Level Montreal Center
01:24PM 61.9167 -59.6000 241° Southwest 490 564 34,000  Level Montreal Center
01:25PM 61.8667 -59.7833 240° Southwest 480 552 34,000  Level Montreal Center
01:26PM 61.7833 -60.0333 235° Southwest 480 552 34,000  Level Montreal Center
01:27PM 61.7167 -60.2500 237° Southwest 480 552 34,000  Level Montreal Center
01:28PM 61.6333 -60.5000 235° Southwest 480 552 34,000  Level Montreal Center
01:29PM 61.5833 -60.7500 247° West 480 552 34,000  Level Montreal Center
01:30PM 61.5000 -60.9667 231° Southwest 480 552 34,000  Level Montreal Center
01:31PM 61.4333 -61.2167 241° Southwest 480 552 34,000  Level Montreal Center
01:32PM 61.3667 -61.4333 237° Southwest 470 541 34,000  Level Montreal Center
01:33PM 61.2833 -61.6667 233° Southwest 470 541 34,000  Level Montreal Center
01:34PM 61.2000 -61.8833 231° Southwest 470 541 34,000  Level Montreal Center
01:35PM 61.1333 -62.1333 241° Southwest 470 541 34,000  Level Montreal Center
01:36PM 61.0667 -62.3333 235° Southwest 470 541 34,000  Level Montreal Center
01:37PM 60.9833 -62.5833 236° Southwest 470 541 34,000  Level Montreal Center
01:38PM 60.9000 -62.8167 234° Southwest 470 541 34,000  Level Montreal Center
01:39PM 60.8333 -63.0667 241° Southwest 470 541 34,000  Level Montreal Center
01:40PM 60.7500 -63.2667 230° Southwest 480 552 34,000  Level Montreal Center
01:41PM 60.6833 -63.5000 240° Southwest 480 552 34,000  Level Montreal Center
01:42PM 60.6000 -63.7167 232° Southwest 470 541 34,000  Level Montreal Center
01:43PM 60.5333 -63.9333 238° Southwest 470 541 34,000  Level Montreal Center
01:44PM 60.4500 -64.1500 232° Southwest 470 541 34,000  Level Montreal Center
01:45PM 60.3667 -64.3833 234° Southwest 470 541 34,000  Level Montreal Center
01:46PM 60.2833 -64.5833 230° Southwest 470 541 34,000  Level Montreal Center
01:47PM 60.2167 -64.8000 238° Southwest 470 541 34,000  Level Montreal Center
01:48PM 60.1333 -65.0000 230° Southwest 470 541 34,000  Level Montreal Center
01:49PM 60.0500 -65.2000 230° Southwest 470 541 34,000  Level Montreal Center
01:50PM 59.9333 -65.3667 216° Southwest 480 552 34,000  Level Montreal Center
01:51PM 59.8500 -65.5667 230° Southwest 490 564 34,000  Level Montreal Center
01:52PM 59.7500 -65.7333 220° Southwest 490 564 34,000  Level Montreal Center
01:53PM 59.6333 -65.9000 216° Southwest 490 564 34,000  Level Montreal Center
01:54PM 59.5333 -66.1000 225° Southwest 480 552 34,000  Level Montreal Center
01:55PM 59.4333 -66.2667 220° Southwest 480 552 34,000  Level Montreal Center
01:56PM 59.3333 -66.4167 217° Southwest 480 552 34,000  Level Montreal Center
01:57PM 59.2333 -66.6167 226° Southwest 480 552 34,000  Level Montreal Center
01:58PM 59.1333 -66.7667 218° Southwest 480 552 34,000  Level Montreal Center
01:59PM 59.0167 -66.9333 216° Southwest 480 552 34,000  Level Montreal Center
02:00PM 58.9167 -67.1167 223° Southwest 480 552 34,000  Level Montreal Center
02:01PM 58.8167 -67.2833 221° Southwest 480 552 34,000  Level Montreal Center
02:02PM 58.7167 -67.4333 218° Southwest 470 541 34,000  Level Montreal Center
02:03PM 58.6000 -67.5833 214° Southwest 470 541 34,000  Level Montreal Center
02:04PM 58.5167 -67.7333 223° Southwest 470 541 34,000  Level Montreal Center
02:05PM 58.4167 -67.9333 226° Southwest 470 541 34,000  Level Montreal Center
02:06PM 58.3167 -68.0667 215° Southwest 460 529 34,000  Level Montreal Center
02:07PM 58.2167 -68.2167 218° Southwest 460 529 34,000  Level Montreal Center
02:08PM 58.1167 -68.4000 224° Southwest 450 518 34,000  Level Montreal Center
02:09PM 57.9667 -68.6000 215° Southwest 460 529 34,000  Level Montreal Center
02:10PM 57.8500 -68.7500 214° Southwest 460 529 34,000  Level Montreal Center
02:11PM 57.7333 -68.9000 214° Southwest 460 529 34,000  Level Montreal Center
02:12PM 57.6500 -69.0000 213° Southwest 460 529 34,000  Level Montreal Center
02:13PM 57.5333 -69.1500 215° Southwest 460 529 34,000  Level Montreal Center
02:14PM 57.4333 -69.3000 219° Southwest 460 529 34,000  Level Montreal Center
02:15PM 57.3333 -69.4500 219° Southwest 460 529 34,000  Level Montreal Center
02:16PM 57.2333 -69.5833 216° Southwest 460 529 34,000  Level Montreal Center
02:17PM 57.1167 -69.7000 209° Southwest 460 529 34,000  Level Montreal Center
02:18PM 57.0167 -69.8333 216° Southwest 460 529 34,000  Level Montreal Center
02:19PM 56.9000 -69.9833 215° Southwest 460 529 34,000  Level Montreal Center
02:20PM 56.8000 -70.1167 216° Southwest 460 529 34,000  Level Montreal Center
02:21PM 56.7000 -70.2500 216° Southwest 460 529 34,000  Level Montreal Center
02:22PM 56.6000 -70.4000 220° Southwest 460 529 34,000  Level Montreal Center
02:23PM 56.4833 -70.5333 212° Southwest 460 529 34,000  Level Montreal Center
02:24PM 56.3833 -70.6333 209° Southwest 460 529 34,000  Level Montreal Center
02:25PM 56.2833 -70.7667 217° Southwest 460 529 34,000  Level Montreal Center
02:26PM 56.1833 -70.9167 220° Southwest 450 518 34,000  Level Montreal Center
02:27PM 56.0667 -71.0167 206° Southwest 450 518 34,000  Level Montreal Center
02:28PM 55.9500 -71.1500 213° Southwest 450 518 34,000  Level Montreal Center
02:29PM 55.8667 -71.2833 222° Southwest 450 518 34,000  Level Montreal Center
02:30PM 55.7500 -71.4167 213° Southwest 460 529 34,000  Level Montreal Center
02:31PM 55.6500 -71.5500 217° Southwest 450 518 34,000  Level Montreal Center
02:32PM 55.5333 -71.6500 206° Southwest 450 518 34,000  Level Montreal Center
02:33PM 55.4333 -71.7833 217° Southwest 450 518 34,000  Level Montreal Center
02:34PM 55.3333 -71.9000 214° Southwest 450 518 34,000  Level Montreal Center
02:35PM 55.2333 -72.0333 217° Southwest 450 518 34,000  Level Montreal Center
02:36PM 55.1167 -72.1333 206° Southwest 450 518 34,000  Level Montreal Center
02:37PM 55.0167 -72.2667 217° Southwest 450 518 34,000  Level Montreal Center
02:38PM 54.9000 -72.3833 210° Southwest 450 518 34,000  Level Montreal Center
02:39PM 54.7833 -72.5167 213° Southwest 450 518 34,000  Level Montreal Center
02:40PM 54.6833 -72.6333 214° Southwest 450 518 34,000  Level Montreal Center
02:41PM 54.5833 -72.7333 210° Southwest 450 518 34,000  Level Montreal Center
02:42PM 54.4833 -72.8667 218° Southwest 450 518 34,000  Level Montreal Center
02:43PM 54.3667 -72.9833 210° Southwest 450 518 34,000  Level Montreal Center
02:44PM 54.2667 -73.1167 218° Southwest 450 518 34,000  Level Montreal Center
02:45PM 54.1667 -73.2000 206° Southwest 450 518 34,000  Level Montreal Center
02:46PM 54.0500 -73.3167 210° Southwest 460 529 34,000  Level Montreal Center
02:47PM 53.9333 -73.4500 214° Southwest 460 529 34,000  Level Montreal Center
02:48PM 53.8333 -73.5667 215° Southwest 460 529 34,000  Level Montreal Center
02:49PM 53.7167 -73.6833 211° Southwest 460 529 34,000  Level Montreal Center
02:50PM 53.6167 -73.7833 211° Southwest 460 529 34,000  Level Montreal Center
02:51PM 53.4833 -73.8667 200° South 460 529 34,000  Level Montreal Center
02:52PM 53.3667 -73.9833 211° Southwest 460 529 34,000  Level Montreal Center
02:53PM 53.2500 -74.0833 207° Southwest 460 529 34,000  Level Montreal Center
02:54PM 53.1500 -74.1667 207° Southwest 460 529 34,000  Level Montreal Center
02:55PM 53.0333 -74.2500 203° Southwest 460 529 34,000  Level Montreal Center
02:56PM 52.9167 -74.3500 207° Southwest 460 529 34,000  Level Montreal Center
02:57PM 52.8167 -74.4667 215° Southwest 460 529 34,000  Level Montreal Center
02:58PM 52.7000 -74.5500 203° Southwest 470 541 34,000 300 Level Montreal Center
02:59PM 52.5500 -74.6333 199° South 470 541 34,700 720 Climbing Montreal Center
03:00PM 52.4500 -74.7167 207° Southwest 470 541 35,500 600 Climbing Montreal Center
03:01PM 52.3167 -74.8333 208° Southwest 470 541 36,000 240 Climbing Montreal Center
03:02PM 52.2000 -74.9167 204° Southwest 490 564 36,000  Level Montreal Center
03:03PM 52.0833 -75.0333 212° Southwest 480 552 36,000  Level Montreal Center
03:04PM 51.9667 -75.1167 204° Southwest 470 541 36,000  Level Montreal Center
03:05PM 51.8333 -75.2000 201° Southwest 480 552 36,000  Level Montreal Center
03:06PM 51.7167 -75.3167 212° Southwest 480 552 36,000  Level Montreal Center
03:07PM 51.6000 -75.4000 204° Southwest 470 541 36,000  Level Montreal Center
03:08PM 51.4833 -75.4833 204° Southwest 480 552 36,000  Level Montreal Center
03:09PM 51.3667 -75.5833 208° Southwest 480 552 36,000  Level Montreal Center
03:10PM 51.2333 -75.6667 201° Southwest 480 552 36,000  Level Montreal Center
03:11PM 51.1167 -75.7500 204° Southwest 480 552 36,000  Level Montreal Center
03:12PM 51.0000 -75.8500 208° Southwest 490 564 36,000  Level Montreal Center
03:13PM 50.8667 -75.9333 202° Southwest 490 564 36,000  Level Montreal Center
03:14PM 50.7500 -76.0500 212° Southwest 490 564 36,000  Level Montreal Center
03:15PM 50.6333 -76.1167 200° South 490 564 36,000  Level Montreal Center
03:16PM 50.5000 -76.2333 209° Southwest 490 564 36,000  Level Montreal Center
03:17PM 50.3833 -76.3167 204° Southwest 490 564 36,000  Level Montreal Center
03:18PM 50.2500 -76.4167 206° Southwest 490 564 36,000  Level Montreal Center
03:19PM 50.1333 -76.4833 200° South 490 564 36,000  Level Montreal Center
03:20PM 49.9833 -76.6000 207° Southwest 490 564 36,000  Level Montreal Center
03:21PM 49.8667 -76.6667 200° South 490 564 36,000  Level Montreal Center
03:22PM 49.7500 -76.7500 205° Southwest 490 564 36,000  Level Montreal Center
03:23PM 49.6167 -76.8500 206° Southwest 490 564 36,000  Level Montreal Center
03:24PM 49.5000 -76.9167 200° South 480 552 36,000  Level Montreal Center
03:25PM 49.3667 -77.0167 206° Southwest 510 587 36,000  Level Montreal Center
03:26PM 49.2500 -77.1000 205° Southwest 480 552 36,000  Level Montreal Center
03:27PM 49.1167 -77.2000 206° Southwest 490 564 36,000  Level Montreal Center
03:28PM 49.0000 -77.2667 201° Southwest 500 575 36,000  Level Montreal Center
03:29PM 48.8500 -77.3667 204° Southwest 490 564 36,000  Level Montreal Center
03:30PM 48.7333 -77.4500 205° Southwest 490 564 36,000  Level Montreal Center
03:36PM 48.0340 -77.9040 205° Southwest 497 572 36,000  Level FlightAware
03:36PM 47.9540 -77.9500 201° Southwest 496 571 36,000  Level FlightAware
03:37PM 47.8460 -78.0140 202° Southwest 497 572 36,000  Level FlightAware
03:38PM 47.7780 -78.0520 201° Southwest 497 572 36,000  Level FlightAware
03:39PM 47.6650 -78.1180 201° Southwest 499 574 36,000  Level FlightAware
03:39PM 47.5850 -78.1640 201° Southwest 498 573 36,000  Level FlightAware
03:40PM 47.4820 -78.2240 201° Southwest 496 571 36,000  Level FlightAware
03:41PM 47.3960 -78.2730 201° Southwest 497 572 36,000  Level FlightAware
03:41PM 47.3260 -78.3130 201° Southwest 498 573 36,000  Level FlightAware
03:42PM 47.2340 -78.3650 201° Southwest 497 572 36,000  Level FlightAware
03:43PM 47.1370 -78.4200 201° Southwest 498 573 36,000  Level FlightAware
03:43PM 47.0610 -78.4630 201° Southwest 497 572 36,000  Level FlightAware
03:44PM 46.9710 -78.5130 201° Southwest 496 571 36,000  Level FlightAware
03:45PM 46.8230 -78.5960 201° Southwest 495 570 36,000  Level FlightAware
03:46PM 46.7360 -78.6450 201° Southwest 496 571 36,000  Level FlightAware
03:47PM 46.6510 -78.6920 201° Southwest 496 571 36,000  Level FlightAware
03:47PM 46.5510 -78.7470 201° Southwest 498 573 36,000  Level FlightAware
03:48PM 46.4650 -78.7940 201° Southwest 500 575 36,000  Level FlightAware
03:49PM 46.3750 -78.8440 201° Southwest 501 577 36,000  Level FlightAware
03:49PM 46.2930 -78.8890 201° Southwest 502 578 36,000  Level FlightAware
03:50PM 46.1900 -78.9450 201° Southwest 501 577 36,000  Level FlightAware
03:51PM 46.1010 -78.9930 201° Southwest 501 577 36,000  Level FlightAware
03:51PM 46.0150 -79.0400 201° Southwest 500 575 36,000  Level FlightAware
03:52PM 45.9200 -79.0910 200° South 495 570 36,000  Level FlightAware
03:53PM 45.8380 -79.1350 200° South 490 564 36,000  Level FlightAware
03:54PM 45.7450 -79.1850 201° Southwest 477 549 36,000  Level FlightAware
03:54PM 45.6700 -79.2250 200° South 470 541 36,000  Level FlightAware
03:55PM 45.5700 -79.2780 200° South 472 543 36,000  Level FlightAware
03:56PM 45.4880 -79.3220 201° Southwest 479 551 36,000  Level FlightAware
03:56PM 45.3960 -79.3700 200° South 475 547 36,000  Level FlightAware
03:57PM 45.3110 -79.4150 200° South 471 542 36,000  Level FlightAware
03:58PM 45.2240 -79.4610 200° South 475 547 36,000  Level FlightAware
03:58PM 45.1530 -79.4980 200° South 477 549 36,000  Level FlightAware
03:59PM 45.0680 -79.5420 200° South 477 549 36,000  Level FlightAware
04:00PM 44.9730 -79.5920 200° South 477 549 36,000  Level FlightAware
04:01PM 44.8820 -79.6390 200° South 476 548 36,000  Level FlightAware
04:01PM 44.8000 -79.6820 200° South 477 549 36,000  Level FlightAware
04:02PM 44.7330 -79.7160 200° South 478 550 36,000  Level FlightAware
04:02PM 44.6500 -79.7590 200° South 480 552 36,000  Level FlightAware
04:03PM 44.5530 -79.8190 204° Southwest 479 551 36,000  Level FlightAware
04:04PM 44.4880 -79.8760 212° Southwest 478 550 36,000  Level FlightAware
04:05PM 44.4050 -79.9520 213° Southwest 476 548 36,000  Level FlightAware
04:05PM 44.3320 -80.0190 213° Southwest 473 544 36,000  Level FlightAware
04:06PM 44.2600 -80.0830 212° Southwest 472 543 36,000  Level FlightAware
04:07PM 44.1810 -80.1540 213° Southwest 473 544 36,000  Level FlightAware
04:07PM 44.1010 -80.2240 212° Southwest 477 549 36,000  Level FlightAware
04:08PM 44.0200 -80.2960 213° Southwest 481 554 36,000  Level FlightAware
04:09PM 43.9470 -80.3610 213° Southwest 481 554 36,000  Level FlightAware
04:09PM 43.8870 -80.4140 212° Southwest 480 552 36,000  Level FlightAware
04:10PM 43.7960 -80.4940 212° Southwest 476 548 36,000  Level FlightAware
04:10PM 43.7670 -80.5200 213° Southwest 476 548 36,000  Level FlightAware
04:11PM 43.6910 -80.5850 212° Southwest 476 548 36,000  Level FlightAware
04:12PM 43.6140 -80.6530 213° Southwest 478 550 36,000  Level FlightAware
04:13PM 43.5170 -80.7370 212° Southwest 478 550 36,000  Level FlightAware
04:13PM 43.4350 -80.8080 212° Southwest 479 551 36,000  Level FlightAware
04:14PM 43.3580 -80.8750 212° Southwest 484 557 36,000 600 Level FlightAware
04:15PM 43.2550 -80.9630 212° Southwest 483 556 37,000 1,200 Climbing FlightAware
04:16PM 43.1810 -81.0270 212° Southwest 478 550 37,900 660 Climbing FlightAware
04:16PM 43.0950 -81.1000 212° Southwest 487 560 38,000 60 Climbing FlightAware
04:17PM 43.0150 -81.1610 209° Southwest 490 564 38,000  Level FlightAware
04:18PM 42.9310 -81.2130 204° Southwest 487 560 38,000  Level FlightAware
04:18PM 42.8530 -81.2630 205° Southwest 488 562 38,000  Level FlightAware
04:19PM 42.7690 -81.3150 204° Southwest 488 562 38,000  Level FlightAware
04:20PM 42.6880 -81.3650 204° Southwest 489 563 38,000  Level FlightAware
04:20PM 42.5920 -81.4230 204° Southwest 492 566 38,000  Level FlightAware
04:21PM 42.5130 -81.4720 205° Southwest 494 568 38,000  Level FlightAware
04:22PM 42.4180 -81.5290 204° Southwest 493 567 38,000  Level FlightAware
04:22PM 42.3340 -81.5800 204° Southwest 491 565 38,000  Level FlightAware
04:23PM 42.2440 -81.6350 204° Southwest 490 564 38,000  Level FlightAware
04:24PM 42.1530 -81.6900 204° Southwest 491 565 38,000  Level FlightAware
04:25PM 42.0570 -81.7470 204° Southwest 491 565 38,000  Level FlightAware
04:25PM 41.9780 -81.7950 204° Southwest 491 565 38,000  Level FlightAware
04:26PM 41.8880 -81.8490 204° Southwest 490 564 38,000  Level FlightAware
04:27PM 41.8020 -81.9000 204° Southwest 489 563 38,000  Level FlightAware
04:27PM 41.7150 -81.9520 204° Southwest 491 565 38,000  Level FlightAware
04:28PM 41.6230 -82.0060 204° Southwest 494 568 38,000  Level FlightAware
04:29PM 41.5380 -82.0560 204° Southwest 496 571 38,000  Level FlightAware
04:29PM 41.4470 -82.1100 204° Southwest 497 572 38,000  Level FlightAware
04:30PM 41.3650 -82.1560 203° Southwest 497 572 38,000  Level FlightAware
04:31PM 41.2670 -82.1910 195° South 500 575 38,000  Level FlightAware
04:32PM 41.1410 -82.1970 182° South 509 586 38,000  Level FlightAware
04:33PM 41.0380 -82.1950 179° South 509 586 38,000  Level FlightAware
04:33PM 40.9400 -82.1930 179° South 512 589 38,000  Level FlightAware
04:34PM 40.8480 -82.1920 180° South 513 590 38,000  Level FlightAware
04:34PM 40.7580 -82.1910 180° South 515 593 38,000  Level FlightAware
04:35PM 40.6580 -82.1890 179° South 512 589 38,000  Level FlightAware
04:36PM 40.5970 -82.1760 171° South 513 590 38,000  Level FlightAware
04:36PM 40.4970 -82.1450 167° South 516 594 38,000  Level FlightAware
04:37PM 40.3930 -82.1120 166° South 516 594 38,000  Level FlightAware
04:38PM 40.3090 -82.0890 168° South 515 593 38,000  Level FlightAware
04:38PM 40.2020 -82.0570 167° South 517 595 38,000  Level FlightAware
04:39PM 40.1130 -82.0260 165° South 509 586 38,000  Level FlightAware
04:40PM 40.0310 -81.9960 164° South 498 573 38,000  Level FlightAware
04:40PM 39.9300 -81.9550 163° South 504 580 38,000  Level FlightAware
04:41PM 39.8480 -81.9210 162° South 514 592 38,000  Level FlightAware
04:42PM 39.7620 -81.8850 162° South 510 587 38,000  Level FlightAware
04:42PM 39.6620 -81.8450 163° South 507 583 38,000  Level FlightAware
04:43PM 39.5670 -81.8080 163° South 510 587 38,000  Level FlightAware
04:44PM 39.4720 -81.7770 166° South 516 594 38,000  Level FlightAware
04:45PM 39.3780 -81.7480 167° South 516 594 38,000  Level FlightAware
04:45PM 39.2500 -81.7430 178° South 499 574 38,000  Level FlightAware
04:46PM 39.1620 -81.7960 205° Southwest 494 568 38,000  Level FlightAware
04:47PM 39.0870 -81.8470 208° Southwest 500 575 38,000  Level FlightAware
04:48PM 38.9890 -81.9130 208° Southwest 497 572 38,000  Level FlightAware
04:48PM 38.9110 -81.9660 208° Southwest 495 570 38,000  Level FlightAware
04:49PM 38.8210 -82.0270 208° Southwest 494 568 38,000  Level FlightAware
04:50PM 38.7320 -82.0870 208° Southwest 495 570 38,000  Level FlightAware
04:51PM 38.6200 -82.1630 208° Southwest 499 574 38,000  Level FlightAware
04:52PM 38.4990 -82.2430 207° Southwest 500 575 38,000  Level FlightAware
04:52PM 38.4180 -82.2970 208° Southwest 500 575 38,000  Level FlightAware
04:53PM 38.3399 -82.3480 207° Southwest 501 577 38,000  Level FlightAware ADS-B
04:54PM 38.2570 -82.4020 207° Southwest 501 577 38,000  Level FlightAware
04:54PM 38.2419 -82.4125 209° Southwest 502 578 38,000  Level FlightAware ADS-B
04:54PM 38.1750 -82.4560 207° Southwest 500 575 38,000  Level FlightAware
04:55PM 38.1294 -82.4863 208° Southwest 501 577 38,000  Level FlightAware ADS-B
04:55PM 38.0150 -82.5610 207° Southwest 503 579 38,000  Level FlightAware
04:56PM 37.9864 -82.5797 207° Southwest 503 579 38,000  Level FlightAware ADS-B
04:56PM 37.9117 -82.6283 207° Southwest 504 580 38,000  Level FlightAware ADS-B
04:57PM 37.8416 -82.6739 207° Southwest 505 581 38,000  Level FlightAware ADS-B
04:58PM 37.7580 -82.7280 207° Southwest 504 580 38,000  Level FlightAware
04:58PM 37.6720 -82.7830 207° Southwest 503 579 38,000  Level FlightAware
04:59PM 37.5850 -82.8400 207° Southwest 503 579 38,000  Level FlightAware
05:00PM 37.4970 -82.8960 207° Southwest 503 579 38,000  Level FlightAware
05:00PM 37.3926 -82.9632 207° Southwest 502 578 38,000  Level FlightAware ADS-B
05:01PM 37.3273 -83.0050 207° Southwest 501 577 38,000  Level FlightAware ADS-B
05:02PM 37.2590 -83.0486 207° Southwest 502 578 38,000  Level FlightAware ADS-B
05:02PM 37.1712 -83.1046 207° Southwest 503 579 38,000  Level FlightAware ADS-B
05:03PM 37.1054 -83.1463 207° Southwest 503 579 38,000  Level FlightAware ADS-B
05:03PM 37.0382 -83.1890 207° Southwest 503 579 38,000  Level FlightAware ADS-B
05:04PM 36.9666 -83.2343 207° Southwest 502 578 38,000  Level FlightAware ADS-B
05:04PM 36.9040 -83.2738 207° Southwest 501 577 38,000  Level FlightAware ADS-B
05:05PM 36.8392 -83.3146 207° Southwest 500 575 38,000  Level FlightAware ADS-B
05:05PM 36.7754 -83.3548 207° Southwest 499 574 38,000  Level FlightAware ADS-B
05:06PM 36.7129 -83.3940 207° Southwest 500 575 38,000  Level FlightAware ADS-B
05:06PM 36.6508 -83.4329 207° Southwest 500 575 38,000  Level FlightAware ADS-B
05:07PM 36.5883 -83.4720 207° Southwest 500 575 38,000  Level FlightAware ADS-B
05:07PM 36.5244 -83.5119 207° Southwest 500 575 38,000  Level FlightAware ADS-B
05:08PM 36.4571 -83.5539 207° Southwest 499 574 38,000  Level FlightAware ADS-B
05:09PM 36.3942 -83.5930 207° Southwest 499 574 38,000  Level FlightAware ADS-B
05:09PM 36.3315 -83.6319 207° Southwest 496 571 38,000  Level FlightAware ADS-B
05:10PM 36.2690 -83.6706 207° Southwest 494 568 38,000  Level FlightAware ADS-B
05:10PM 36.2064 -83.7095 207° Southwest 494 568 38,000  Level FlightAware ADS-B
05:11PM 36.1436 -83.7482 206° Southwest 492 566 38,000  Level FlightAware ADS-B
05:11PM 36.0821 -83.7861 206° Southwest 491 565 38,000  Level FlightAware ADS-B
05:12PM 36.0202 -83.8241 206° Southwest 490 564 38,000  Level FlightAware ADS-B
05:12PM 35.9595 -83.8607 206° Southwest 490 564 38,000  Level FlightAware ADS-B
05:12PM 35.9180 -83.8804 201° Southwest 490 564 38,000  Level FlightAware ADS-B
05:13PM 35.8546 -83.9034 196° South 488 562 38,000  Level FlightAware ADS-B
05:13PM 35.7873 -83.9207 192° South 487 560 38,000  Level FlightAware ADS-B
05:14PM 35.7108 -83.9410 192° South 485 558 38,000  Level FlightAware ADS-B
05:14PM 35.6450 -83.9580 192° South 484 557 38,000  Level FlightAware ADS-B
05:15PM 35.5559 -83.9798 191° South 483 556 38,000  Level FlightAware ADS-B
05:16PM 35.4882 -83.9961 191° South 482 555 38,000  Level FlightAware ADS-B
05:16PM 35.4123 -84.0144 191° South 479 551 38,000  Level FlightAware ADS-B
05:17PM 35.3446 -84.0307 191° South 478 550 38,000  Level FlightAware ADS-B
05:17PM 35.2746 -84.0476 191° South 479 551 38,000  Level FlightAware ADS-B
05:18PM 35.2087 -84.0634 191° South 480 552 38,000  Level FlightAware ADS-B
05:19PM 35.0700 -84.0966 191° South 479 551 38,000  Level FlightAware ADS-B
05:19PM 35.0050 -84.1121 191° South 476 548 38,000  Level FlightAware ADS-B
05:20PM 34.8922 -84.1391 191° South 476 548 38,000  Level FlightAware ADS-B
05:21PM 34.8359 -84.1544 193° South 476 548 38,000  Level FlightAware ADS-B
05:21PM 34.8185 -84.1628 202° Southwest 476 548 38,000  Level FlightAware ADS-B
05:21PM 34.8092 -84.1684 206° Southwest 477 549 38,000  Level FlightAware ADS-B
05:21PM 34.7484 -84.2119 210° Southwest 476 548 38,000  Level FlightAware ADS-B
05:22PM 34.6912 -84.2551 212° Southwest 478 550 38,000  Level FlightAware ADS-B
05:22PM 34.6345 -84.2995 213° Southwest 479 551 38,000  Level FlightAware ADS-B
05:23PM 34.5753 -84.3457 213° Southwest 480 552 38,000  Level FlightAware ADS-B
05:24PM 34.5188 -84.3905 213° Southwest 478 550 38,000  Level FlightAware ADS-B
05:24PM 34.4635 -84.4356 214° Southwest 479 551 38,000  Level FlightAware ADS-B
05:25PM 34.4075 -84.4814 214° Southwest 481 554 38,000  Level FlightAware ADS-B
05:25PM 34.3503 -84.5244 212° Southwest 479 551 38,000  Level FlightAware ADS-B
05:26PM 34.2560 -84.5850 208° Southwest 478 550 38,000  Level FlightAware
05:26PM 34.2308 -84.6003 207° Southwest 479 551 38,000  Level FlightAware ADS-B
05:27PM 34.1702 -84.6344 205° Southwest 478 550 38,000  Level FlightAware ADS-B
05:27PM 34.0900 -84.6570 193° South 471 542 38,000  Level FlightAware
05:28PM 33.9820 -84.6470 176° South 464 534 38,000 180 Level FlightAware
05:29PM 33.8800 -84.6390 176° South 469 540 38,300 480 Climbing FlightAware
05:30PM 33.7784 -84.6303 176° South 475 547 38,800 540 Climbing FlightAware ADS-B
05:30PM 33.7104 -84.6245 176° South 474 545 39,000 180 Climbing FlightAware ADS-B
05:31PM 33.6445 -84.6189 176° South 473 544 39,000  Level FlightAware ADS-B
05:31PM 33.5775 -84.6132 176° South 474 545 39,000  Level FlightAware ADS-B
05:32PM 33.5107 -84.6078 176° South 475 547 39,000  Level FlightAware ADS-B
05:32PM 33.4387 -84.6020 176° South 474 545 39,000  Level FlightAware ADS-B
05:33PM 33.3669 -84.5962 176° South 473 544 39,000  Level FlightAware ADS-B
05:33PM 33.2940 -84.5902 176° South 471 542 39,000  Level FlightAware ADS-B
05:34PM 33.2290 -84.5850 176° South 470 541 39,000  Level FlightAware
05:34PM 33.1760 -84.5806 176° South 469 540 39,000  Level FlightAware ADS-B
05:35PM 33.0610 -84.5710 176° South 470 541 39,000  Level FlightAware
05:36PM 32.9614 -84.5632 176° South 472 543 39,000  Level FlightAware ADS-B
05:36PM 32.8830 -84.5570 176° South 474 545 39,000  Level FlightAware
05:37PM 32.7990 -84.5500 176° South 477 549 39,000  Level FlightAware
05:38PM 32.7110 -84.5430 176° South 478 550 39,000  Level FlightAware
05:38PM 32.6240 -84.5360 176° South 477 549 39,000  Level FlightAware
05:39PM 32.5370 -84.5290 176° South 477 549 39,000  Level FlightAware
05:40PM 32.4420 -84.5210 176° South 478 550 39,000  Level FlightAware
05:40PM 32.3490 -84.5140 176° South 481 554 39,000  Level FlightAware
05:41PM 32.2570 -84.5070 176° South 483 556 39,000  Level FlightAware
05:42PM 32.1670 -84.5000 176° South 483 556 39,000  Level FlightAware
05:43PM 32.0680 -84.4920 176° South 481 554 39,000  Level FlightAware
05:43PM 31.9800 -84.4850 176° South 479 551 39,000  Level FlightAware
05:44PM 31.8910 -84.4780 176° South 479 551 39,000  Level FlightAware
05:44PM 31.8270 -84.4720 175° South 479 551 39,000  Level FlightAware
05:46PM 31.6950 -84.4620 176° South 479 551 39,000  Level FlightAware
05:46PM 31.6280 -84.4560 176° South 479 551 39,000  Level FlightAware
05:47PM 31.5110 -84.4470 176° South 479 551 39,000  Level FlightAware
05:48PM 31.4450 -84.4410 176° South 479 551 39,000  Level FlightAware
05:48PM 31.3780 -84.4360 176° South 479 551 39,000  Level FlightAware
05:50PM 31.1540 -84.4200 177° South 469 540 39,000  Level FlightAware
05:50PM 31.0510 -84.4120 176° South 468 539 39,000  Level FlightAware
05:51PM 30.9670 -84.4050 176° South 468 539 39,000  Level FlightAware
05:52PM 30.8570 -84.3960 176° South 468 539 39,000  Level FlightAware
05:53PM 30.7490 -84.3890 177° South 466 536 39,000  Level FlightAware
05:54PM 30.6350 -84.3770 175° South 466 536 39,000  Level FlightAware
05:54PM 30.5470 -84.3540 167° South 466 536 39,000  Level FlightAware
05:56PM 30.4000 -84.2720 154° Southeast 463 533 39,000  Level FlightAware
05:56PM 30.3220 -84.2200 150° Southeast 463 533 39,000  Level FlightAware
05:57PM 30.2480 -84.1720 151° Southeast 462 532 39,000  Level FlightAware
05:58PM 30.1660 -84.1180 150° Southeast 463 533 39,000  Level FlightAware
05:58PM 30.0670 -84.0540 151° Southeast 463 533 39,000  Level FlightAware
05:59PM 29.9810 -83.9980 151° Southeast 465 535 39,000  Level FlightAware
05:59PM 29.9650 -83.9880 152° Southeast 465 535 39,000  Level FlightAware
06:00PM 29.8490 -83.9130 151° Southeast 460 529 39,000  Level FlightAware
06:01PM 29.7540 -83.8510 150° Southeast 460 529 39,000  Level FlightAware
06:02PM 29.6890 -83.8100 151° Southeast 460 529 39,000  Level FlightAware
06:02PM 29.6120 -83.7600 151° Southeast 463 533 39,000  Level FlightAware
06:03PM 29.5380 -83.7130 151° Southeast 462 532 39,000  Level FlightAware
06:04PM 29.4610 -83.6630 151° Southeast 462 532 39,000  Level FlightAware
06:04PM 29.3850 -83.6150 151° Southeast 463 533 39,000  Level FlightAware
06:05PM 29.3100 -83.5660 150° Southeast 464 534 39,000  Level FlightAware
06:06PM 29.2330 -83.5170 151° Southeast 465 535 39,000  Level FlightAware
06:07PM 29.1470 -83.4620 151° Southeast 465 535 39,000  Level FlightAware
06:07PM 29.0710 -83.4140 151° Southeast 464 534 39,000  Level FlightAware
06:08PM 28.9850 -83.3590 151° Southeast 462 532 39,000  Level FlightAware
06:08PM 28.9280 -83.3230 151° Southeast 461 531 39,000  Level FlightAware
06:09PM 28.8620 -83.2820 151° Southeast 459 528 39,000  Level FlightAware
06:10PM 28.7870 -83.2340 151° Southeast 463 533 39,000  Level FlightAware
06:10PM 28.7120 -83.1870 151° Southeast 461 531 39,000  Level FlightAware
06:11PM 28.6360 -83.1390 151° Southeast 457 526 39,000  Level FlightAware
06:12PM 28.5080 -83.0580 151° Southeast 457 526 39,000  Level FlightAware
06:13PM 28.4250 -83.0070 152° Southeast 456 525 39,000  Level FlightAware
06:14PM 28.3330 -82.9490 151° Southeast 458 527 39,000  Level FlightAware
06:14PM 28.2670 -82.9080 151° Southeast 461 531 39,000  Level FlightAware
06:15PM 28.1970 -82.8640 151° Southeast 463 533 39,000  Level FlightAware
06:17PM 27.9870 -82.7320 151° Southeast 461 531 39,000  Level FlightAware
06:18PM 27.8160 -82.6240 151° Southeast 456 525 39,000  Level FlightAware
06:19PM 27.7430 -82.5740 149° Southeast 454 522 39,000  Level FlightAware
06:20PM 27.6730 -82.5270 149° Southeast 453 521 39,000  Level FlightAware
06:20PM 27.5990 -82.4780 150° Southeast 448 516 39,000  Level FlightAware
06:21PM 27.5180 -82.4250 150° Southeast 451 519 39,000  Level FlightAware
06:22PM 27.4450 -82.3760 149° Southeast 452 520 39,000  Level FlightAware
06:23PM 27.3640 -82.3230 150° Southeast 452 520 39,000  Level FlightAware
06:23PM 27.2910 -82.2740 149° Southeast 451 519 39,000  Level FlightAware
06:24PM 27.2240 -82.2300 150° Southeast 451 519 39,000  Level FlightAware
06:25PM 27.1400 -82.1750 150° Southeast 450 518 39,000  Level FlightAware
06:25PM 27.0590 -82.1220 150° Southeast 450 518 39,000  Level FlightAware
06:26PM 26.9970 -82.0810 149° Southeast 451 519 39,000  Level FlightAware
06:27PM 26.9010 -82.0390 159° South 451 519 39,000  Level FlightAware
06:27PM 26.8220 -82.0480 186° South 454 522 39,000  Level FlightAware
06:28PM 26.7260 -82.0640 188° South 456 525 39,000  Level FlightAware
06:29PM 26.6300 -82.0800 188° South 458 527 39,000  Level FlightAware
06:30PM 26.5460 -82.0950 189° South 459 528 39,000  Level FlightAware
06:30PM 26.4590 -82.1090 188° South 458 527 39,000  Level FlightAware
06:31PM 26.3730 -82.1240 189° South 457 526 39,000  Level FlightAware
06:32PM 26.2750 -82.1410 189° South 456 525 39,000  Level FlightAware
06:32PM 26.2010 -82.1530 188° South 457 526 39,000  Level FlightAware
06:33PM 26.1160 -82.1670 188° South 458 527 39,000  Level FlightAware
06:34PM 26.0200 -82.1840 189° South 457 526 39,000  Level FlightAware
06:34PM 25.9460 -82.1960 188° South 458 527 39,000  Level FlightAware
06:35PM 25.8490 -82.2130 189° South 468 539 39,000  Level FlightAware
06:36PM 25.7700 -82.2260 188° South 468 539 39,000  Level FlightAware
06:37PM 25.6570 -82.2450 189° South 455 524 39,000  Level FlightAware
06:37PM 25.5420 -82.2640 188° South 442 509 39,000  Level FlightAware
06:38PM 25.4470 -82.2800 189° South 441 507 39,000  Level FlightAware
06:39PM 25.3130 -82.3020 188° South 457 526 39,000  Level FlightAware
06:40PM 25.1960 -82.3220 189° South 456 525 39,000 -720 Level FlightAware
06:41PM 25.0580 -82.3450 189° South 471 542 37,700 -1,740 Descending FlightAware
06:42PM 24.9480 -82.3630 188° South 36,000 -1,980 Descending FlightAware
06:43PM 24.8240 -82.3840 189° South 469 540 34,200 -1,440 Descending FlightAware
06:44PM 24.7070 -82.4020 188° South 456 525 33,200 -1,200 Descending FlightAware
06:45PM 24.5650 -82.4250 188° South 456 525 31,500 -960 Descending FlightAware
06:46PM 24.5010 -82.4350 188° South 456 525 31,500 -2,640 Level FlightAware
06:47PM 24.3540 -82.4610 189° South 435 501 27,400 -3,120 Descending FlightAware
06:48PM 24.2640 -82.4760 189° South 435 501 26,100 -960 Descending FlightAware
06:48PM 24.1980 -82.4860 188° South 435 501 26,100  Level FlightAware
06:49PM 24.1390 -82.4950 188° South 435 501 26,100  Level FlightAware
06:50PM 24.0590 -82.5070 188° South 435 501 26,100  Level FlightAware
06:50PM 23.9980 -82.5170 189° South 435 501 26,100  Level FlightAware
06:51PM 23.9370 -82.5260 188° South 435 501 26,100  Level FlightAware
06:57PM 23.2257 -82.4176 175° South  Level FlightAware Approximate
06:58PM 23.0996 -82.4099 170° South  Level FlightAware Approximate
06:59PM 22.9891 -82.4091 180° South  Level Estimated
07:00PM 22.9891 -82.4091 180° South  Level Estimated
07:01PM 22.9891 -82.4091 180° South  Level Estimated
07:02PM 22.9891 -82.4091 180° South  Level Estimated
07:03PM 22.9891 -82.4091 180° South  Level Estimated
07:04PM 22.9891 -82.4091 180° South  Level Estimated
07:05PM 22.9891 -82.4091 180° South  Level Estimated
07:06PM 22.9891 -82.4091 180° South  Level Estimated
07:07PM 22.9891 -82.4091 180° South  Level Estimated
07:08PM 22.9891 -82.4091 180° South  Level Estimated
07:09PM 22.9891 -82.4091 180° South  Level Estimated
07:10PM 22.9891 -82.4091 180° South  Level Estimated
07:11PM 22.9891 -82.4091 180° South  Level Estimated
07:12PM 22.9891 -82.4091 180° South  Level Estimated
07:13PM 22.9891 -82.4091 180° South  Level Estimated
07:14PM 22.9891 -82.4091 180° South  Level Estimated
07:15PM 22.9891 -82.4091 180° South  Level Estimated
07:16PM 22.9891 -82.4091 180° South  Level Estimated
07:17PM 22.9891 -82.4091 180° South  Level Estimated
07:18PM 22.9891 -82.4091 180° South  Level Estimated
07:19PM 22.9891 -82.4091 180° South  Level Estimated
07:20PM 22.9891 -82.4091 180° South  Level Estimated
07:21PM 22.9891 -82.4091 180° South  Level Estimated
07:22PM 22.9891 -82.4091 180° South  Level Estimated
07:23PM 22.9891 -82.4091 180° South  Level Estimated
07:24PM 22.9891 -82.4091 180° South  Level Estimated
07:25PM 22.9891 -82.4091 180° South  Level Estimated
07:26PM 22.9891 -82.4091 180° South  Level Estimated
07:27PM 22.9891 -82.4091 180° South  Level Estimated
07:28PM 22.9891 -82.4091 180° South  Level Estimated
07:29PM 22.9891 -82.4091 180° South  Level Estimated